Regional Weather Roundup
Issued by NWS Wilmington, NC

Home | Current Version | Previous Version | Text Only | Print | Product List | Glossary On
Versions: 1 2 3 4 5 6 7 8 9 10 11 12 13 14 15 16 17 18 19 20 21 22 23 24 25 26 27
000
ASUS42 KILM 221313
RWRILM
RWRILM
REGIONAL HOURLY WEATHER ROUNDUP
NATIONAL WEATHER SERVICE WILMINGTON NC
900 AM EDT SUN OCT 22 2017

NOTE: "FAIR" INDICATES FEW OR NO CLOUDS BELOW 12,000 FEET WITH NO
SIGNIFICANT WEATHER AND/OR OBSTRUCTIONS TO VISIBILITY.

...............WFO WILMINGTON COUNTY WARNING AREA...............

......COASTAL NC AND SC COUNTIES......

CITY           SKY/WX    TMP DP  RH WIND       PRES   REMARKS
WILMINGTON     PTSUNNY   66  60  81 NE5       30.34R
N MYRTLE BEACH MOSUNNY   67  65  93 NE7       30.32R
MYRTLE BEACH   CLOUDY    69  65  86 E8        30.33R

......INLAND NC AND SC COUNTIES.......

CITY           SKY/WX    TMP DP  RH WIND       PRES   REMARKS
LUMBERTON      MOSUNNY   61  59  93 NE6       30.34R
ELIZABETHTOWN  NOT AVBL
WHITEVILLE     PTSUNNY   61  59  95 CALM      30.33S
FLORENCE       SUNNY     61  60  97 NE5       30.34R FOG
DARLINGTON     FOG       58  58 100 N3        30.35R VSB 1/4
KINGSTREE      FAIR      63  61  94 CALM      30.32R
HARTSVILLE     PTSUNNY   61  61 100 E5        30.34R FOG
BENNETTSVILLE  FAIR      61  61 100 NE3       30.34R FOG
CONWAY         FAIR      63  63 100 NE6       30.33R
GEORGETOWN     FAIR      68  68 100 NE6       30.31R
MARION         FAIR      61  59  94 E3        30.33R

....................REST OF NORTH CAROLINA......................

.........EASTERN NC.........

CITY           SKY/WX    TMP DP  RH WIND       PRES   REMARKS
CAPE HATTERAS  PTSUNNY   72  65  78 NE5       30.36R
JACKSONVILLE   CLOUDY    62  61  96 NE3       30.36R FOG
MOREHEAD CITY  MOSUNNY   69  66  90 NE7       30.35R
KENANSVILLE    MOSUNNY   55  55 100 CALM      30.36R FOG
NEW BERN       MOSUNNY   62  62 100 NE3       30.38R
ELIZABETH CITY MOSUNNY   64  63  96 N3        30.39R

.........CENTRAL NC.........

CITY           SKY/WX    TMP DP  RH WIND       PRES   REMARKS
RALEIGH DURHAM PTSUNNY   54  54 100 CALM      30.38R
ROCKY MOUNT    PTSUNNY   56  56 100 NE3       30.38R FOG
ROANOKE RAPIDS NOT AVBL
FAYETTEVILLE   MOSUNNY   58  57  97 NE6       30.35S FOG
HOFFMAN        MOSUNNY   55  55 100 N3        30.35S FOG

.........WESTERN NC.........

CITY           SKY/WX    TMP DP  RH WIND       PRES   REMARKS
CHARLOTTE      MOSUNNY   60  58  92 N3        30.35R
GREENSBORO     PTSUNNY   58  54  86 CALM      30.36R
HICKORY        NOT AVBL
BOONE          NOT AVBL
ASHEVILLE      NOT AVBL

.....................REST OF SOUTH CAROLINA.....................

.........EASTERN SC.........

CITY           SKY/WX    TMP DP  RH WIND       PRES   REMARKS
CHARLESTON     CLOUDY    70  67  90 E8        30.28R
BEAUFORT MCAS  CLOUDY    71  68  90 MISG      30.26R
HILTON HEAD    PTSUNNY   73  68  83 NE9       30.25R

.........CENTRAL SC.........

CITY           SKY/WX    TMP DP  RH WIND       PRES   REMARKS
COLUMBIA       MOSUNNY   60  57  89 CALM      30.31R
ORANGEBURG     SUNNY     64  62  93 NE7       30.30R
SUMTER SHAW    SUNNY     62  61  97 NE7       30.30R

.........WESTERN SC.........

CITY           SKY/WX    TMP DP  RH WIND       PRES   REMARKS
GREENVILLE     NOT AVBL
ROCK HILL      PTSUNNY   58  58 100 CALM      30.35R FOG
ANDERSON       PTSUNNY   61  55  81 NE6       30.33R
CLEMSON        NOT AVBL
GREENWOOD      SUNNY     55  54  96 N3        30.34R


...................COASTAL AND OFFSHORE REPORTS..................

................LOCAL PIERS AND NC RESERVE................


STATION/POSITION TIME  SKY/WX   TEMP    WIND        PRES    VSBY
                                AIR SEA DIR/SP/G
                 (UTC)          (F)     (DEG/KT/KT) (MB)    (MI)
JOHNY MRCER PIER 1248            69 74   30/  9/ 10 1027.4R
NC RESRV MASNBRO 1145            64        CALM     1027.0
OCEAN CREST PIER NOT AVBL
SPRINGMAID  PIER 1248                               1026.1R


................COASTAL AND OFFSHORE BUOYS................


STATION/POSITION TIME  SKY/WX   TEMP    WIND        PRES    VSBY
                                AIR SEA DIR/SP/G
                 (UTC)          (F)     (DEG/KT/KT) (MB)    (MI)
DIMNDSHOAL 41025 1250            76 81   70/  6/  8 1027.8R
WVE H/P(F/S)=  3/ 9 SWL H/P/D(F/S/D)=  3/100/ 9

CAPE LOOKOUT     1200            67      10/  8/  9 1026.9R
ONSLOW BAY 41036 NOT AVBL
ONSLOW BAY 41064 1208            74      60/ 14/ 16 1026.4R
ONSLOW BAY 41159 NOT AVBL
MASNBO INL 41110 1259               74                N/A
WVE H/P(F/S)=  3/ 8

WILM HARBR 41108 1300               74                N/A
WVE H/P(F/S)=  3/ 5

27SE WRITB 41037 1208            74 75   70/ 12/ 17 1026.4R
FRYING PAN 41013 1250            76 76   90/ 10/ 12 1026.2R
WVE H/P(F/S)=  3/ 9 SWL H/P/D(F/S/D)=  3/110/ 9

SUNST NRSH 41024 1208            69 73   70/ 10/ 12 1026.2R
CAPRS NRSH 41029 1208            70 73   40/ 12/ 16 1024.4R
EDISTO     41004 1250            79 79   90/ 16/ 21 1024.2R
WVE H/P(F/S)=  4/ 8 SWL H/P/D(F/S/D)=  2/120/ 8



..........OFFSHORE BUOYS BEYOND 100 NM OFFSHORE...........
.....IN A TRIANGLE---HAT TO BERMUDA TO BAHAMAS TO HAT.....


STATION/POSITION TIME  SKY/WX   TEMP    WIND        PRES    VSBY
                                AIR SEA DIR/SP/G
                 (UTC)          (F)     (DEG/KT/KT) (MB)    (MI)
150E HAT   41001 NOT AVBL
W BERMUDA  41048 1250            76 79   50/  8/ 12 1027.2R
WVE H/P(F/S)=  4/ 8 SWL H/P/D(F/S/D)=  3/ 90/ 8

ATLANTIC S 41049 1250            76 80   40/ 16/ 17 1023.2R
WVE H/P(F/S)=  6/ 8 SWL H/P/D(F/S/D)=  3/ 60/ 8

E BAHAMAS  41046 1250            81 82   80/ 14/ 17 1021.3R
WVE H/P(F/S)=  5/ 8 SWL H/P/D(F/S/D)=  3/ 90/ 8

NE BAHAMAS 41047 1250            76 81   90/ 12/ 16 1023.7
WVE H/P(F/S)=  5/ 7 SWL H/P/D(F/S/D)=  3/ 80/ 7

120E CANVRL41010 NOT AVBL

END




USA.gov is the U.S. government's official web portal to all federal, state and local government web resources and services.